Temperature
16 16 16 16 16 16 16 16 16 15 16 16 16 16 16 15 15 15 15 15 15 15 15 15 15 15 14 14 14 14 14 14 14 14 14 14 14 14
16 16 16 16 16 16 16 16 16 16 15 15 15 15 15 15 15 15 15 15 15 14 14 14 14 14 14 14 14 14 14 14 14 14 14 14 14 14
15 15 15 15 15 15 15 15 15 15 15 15 15 15 15 15 14 14 14 14 14 14 14 14 14 14 14 14 14 14 14 13 13 13 13 13 13 13
15 15 15 15 15 15 15 15 15 15 15 15 14 14 14 14 14 14 14 14 14 14 14 14 14 14 14 14 13 13 13 13 13 13 13 13 13 13
15 15 15 15 15 14 14 14 14 14 14 14 14 14 14 14 14 13 13 13 13 14 14 13 13 13 13 13 13 13 13 13 13 13 13 13 13 13
14 14 14 14 14 14 14 14 14 14 14 14 13 13 13 13 13 13 13 13 13 13 13 13 13 13 13 13 13 13 13 13 13 13 12 12 12 12
14 14 14 14 14 14 14 14 14 14 13 13 13 13 13 12 12 12 12 12 12 12 13 13 13 13 13 13 13 13 12 12 12 12 12 12 12 12
13 13 13 14 14 14 13 13 13 13 13 13 12 12 12 12 12 12 12 12 12 12 12 12 12 12 12 12 12 12 12 12 12 12 12 12 12 12
13 13 13 13 13 13 13 13 13 13 13 12 12 12 12 12 12 12 12 12 12 12 12 12 12 12 12 12 12 12 12 12 12 12 12 12 12 12
13 13 13 13 13 13 13 13 13 13 12 12 12 12 12 12 12 12 12 12 11 11 12 11 11 12 12 12 12 12 12 12 12 12 11 11 11 11
13 13 12 12 12 12 12 12 12 12 12 12 12 12 12 12 12 12 12 11 11 11 11 11 11 11 11 11 11 11 11 11 11 11 11 11 11 11
12 12 12 12 12 12 12 12 12 12 12 12 12 12 12 12 12 12 12 11 11 11 11 11 11 11 10 11 11 11 11 11 11 11 11 11 11 10
12 12 12 12 12 12 12 12 12 12 12 12 12 12 12 12 12 12 11 11 11 11 11 11 11 10 10 10 10 11 11 11 11 11 10 10 10 10
12 12 12 12 12 12 12 12 12 11 11 11 11 11 12 12 12 11 11 11 11 11 11 11 11 10 10 10 10 10 10 10 10 10 10 10 10 10
12 12 12 12 12 12 11 11 11 11 11 11 11 11 11 11 11 11 11 11 11 11 11 11 11 10 10 10 10 10 10 10 10 10 10 10 10 10
12 12 12 12 12 11 11 11 11 11 11 11 11 11 11 11 11 11 11 11 11 11 11 11 11 11 10 10 10 10 10 10 10 10 10 10 10 10
12 11 11 11 11 11 11 11 11 11 11 11 11 11 11 11 11 11 11 10 10 10 11 10 10 10 10 10 10 10 10 10 10 10 10 10 10 10
11 11 11 11 11 11 11 11 11 11 10 10 10 10 10 10 10 10 10 10 10 10 10 10 10 10 10 10 10 10 10 10 10 10 10 10 9 9
11 11 11 11 11 11 11 11 10 10 10 10 10 10 10 10 10 10 10 10 10 10 10 10 9 9 9 9 9 10 10 9 9 9 9 9 9 9
11 11 11 11 11 11 11 10 10 10 10 10 10 10 10 9 9 10 10 10 10 10 10 9 9 9 9 9 9 9 9 9 9 9 9 9 9 9
11 11 11 11 11 10 10 10 10 10 10 10 10 9 9 9 9 9 9 9 10 9 9 9 9 9 9 9 9 9 9 9 9 9 9 9 9 9
11 11 11 11 10 10 10 10 10 9 9 9 9 9 9 9 9 9 9 9 9 9 9 9 9 9 9 9 9 9 9 9 9 9 9 9 9 9
11 11 10 10 10 10 10 10 9 9 9 9 9 9 9 9 9 9 9 9 9 9 9 9 9 9 9 9 9 9 9 9 9 9 9 9 9 9
Wind_Speed
2 2 2 2 2 1 0 0 1 1 1 0 1 1 3 5 6 5 6 7 8 9 10 10 9 8 7 8 8 8 7 7 7 6 6 6 5 5
1 1 2 2 2 2 1 1 1 1 1 1 1 1 2 2 4 4 4 7 8 9 10 10 9 8 8 8 8 8 8 8 7 7 7 6 6 6
3 2 2 2 2 2 2 1 1 0 0 1 0 1 1 2 2 3 3 4 5 8 10 10 10 9 9 9 9 9 8 8 8 7 7 6 6 6
3 2 3 2 2 2 2 2 1 0 1 0 0 0 1 1 2 1 1 1 2 5 9 9 10 10 10 9 9 9 9 8 8 8 7 6 6 6
2 2 2 2 2 2 2 2 2 1 1 0 1 1 1 1 1 0 0 0 1 2 5 7 8 9 10 10 10 10 10 9 9 9 8 7 7 7
2 3 2 2 2 2 2 2 2 2 1 0 0 0 1 1 1 0 1 1 1 1 2 3 6 8 10 10 9 10 10 10 10 9 9 8 8 7
2 2 2 2 2 1 1 1 2 1 1 0 0 0 0 0 0 1 1 1 1 1 0 1 3 3 5 8 9 9 10 11 11 10 10 9 9 8
2 2 0 1 3 3 2 1 0 0 0 0 1 1 1 1 1 1 1 1 2 1 1 2 1 2 3 5 9 10 11 12 11 11 10 10 9 9
2 3 3 2 2 1 0 1 1 2 4 3 2 2 2 2 1 2 2 2 3 2 1 2 2 2 3 5 9 11 11 12 12 11 11 11 10 10
2 1 1 2 3 3 2 2 2 2 3 3 2 3 2 1 2 2 3 2 2 2 2 2 2 2 2 3 8 11 12 12 12 12 12 11 11 10
1 1 1 2 2 3 1 2 2 3 3 2 3 4 4 4 3 2 2 3 3 3 2 2 2 2 2 3 6 11 12 12 12 12 12 12 11 9
1 1 2 1 2 2 1 2 3 3 3 3 3 4 4 5 6 5 4 4 3 2 2 2 2 2 2 2 2 5 7 8 10 10 11 11 10 7
2 1 1 1 1 2 3 3 4 4 4 4 4 3 3 3 4 3 3 3 3 3 2 2 2 2 2 2 2 3 5 4 5 6 9 11 11 9
3 1 0 1 3 4 4 5 5 5 4 4 3 2 2 2 2 1 1 2 3 4 4 3 3 3 3 3 3 2 4 5 5 5 6 8 10 12
3 3 4 5 5 4 6 6 4 3 3 3 2 2 2 2 1 1 1 2 3 5 6 5 4 3 3 3 3 3 3 3 5 4 5 5 5 6
3 4 5 6 6 5 4 3 3 3 3 3 3 3 2 2 2 2 2 3 2 3 3 4 4 4 4 4 4 4 3 3 4 4 4 4 5 7
3 4 4 3 3 3 2 2 3 3 3 3 3 3 3 2 3 3 3 2 3 3 3 2 2 3 3 3 4 5 4 4 3 4 3 3 3 5
3 5 4 3 3 3 3 3 3 2 2 2 3 3 3 3 3 3 3 3 3 3 3 2 1 1 2 3 5 5 4 3 3 3 3 3 4 4
4 5 4 3 3 3 3 2 2 2 2 3 3 3 3 3 4 4 3 3 3 3 3 2 2 2 3 4 3 4 3 2 2 2 3 3 3 3
4 4 3 3 3 3 2 2 2 2 2 3 3 3 3 4 4 4 4 4 3 4 3 3 3 3 4 4 3 3 5 4 3 3 3 2 1 1
3 3 3 3 3 2 2 2 2 3 3 3 3 3 3 4 4 4 4 5 4 4 4 3 4 5 3 2 2 2 2 4 5 3 2 2 2 2
3 3 3 3 2 2 2 2 3 3 3 3 3 3 3 4 5 5 5 4 4 4 4 3 3 3 2 3 3 3 2 2 3 4 4 4 3 3
2 3 3 3 2 2 3 3 4 3 3 3 3 3 4 4 4 4 4 4 3 3 3 3 2 3 3 3 3 3 2 2 2 2 3 5 7 7
Wind_Direction
316 318 304 299 317 335 320 198 220 268 277 274 93 127 135 131 149 166 165 177 186 190 190 192 196 200 201 197 197 199 203 209 212 216 222 224 230 240
277 295 314 320 331 329 312 273 251 248 285 340 353 114 101 125 154 155 166 180 189 188 193 194 198 199 197 194 196 197 200 206 212 217 221 222 229 237
330 352 346 331 338 332 322 310 284 221 180 313 6 47 63 117 132 151 163 168 180 191 192 194 200 201 198 198 198 199 203 207 211 219 219 227 235 241
343 357 351 340 346 338 336 332 339 3 140 204 195 145 70 94 132 168 155 179 179 192 191 197 203 202 201 201 198 200 204 208 214 215 219 228 235 241
359 6 356 344 336 343 350 339 347 352 68 203 239 171 141 111 95 76 273 133 244 186 185 195 203 205 203 200 200 203 205 209 212 213 215 223 231 237
14 23 9 356 336 328 328 337 1 17 28 345 179 56 74 102 101 249 276 248 284 261 177 194 201 205 206 203 202 205 207 209 210 211 213 219 224 231
6 23 20 36 48 19 344 20 3 7 18 356 54 21 5 54 318 283 276 278 273 260 189 204 184 195 200 207 208 209 207 207 207 210 214 219 223 229
342 337 327 48 64 70 52 44 327 287 317 333 291 263 265 268 281 278 281 286 291 278 251 265 204 209 203 204 205 207 208 208 209 211 215 218 223 228
341 341 338 17 52 48 21 289 275 256 231 225 230 245 254 260 268 274 274 278 278 259 255 261 241 234 225 219 202 204 208 210 211 211 213 217 224 229
324 335 355 29 4 2 334 317 291 283 262 234 225 238 255 257 243 255 257 260 258 255 229 252 249 249 249 206 208 206 207 210 214 215 216 216 220 226
337 17 50 63 7 346 316 305 306 300 287 261 241 240 246 258 249 250 251 254 263 258 236 251 260 264 253 235 213 207 210 216 217 216 216 215 216 220
278 129 80 64 351 345 289 285 294 303 310 309 287 266 241 234 233 227 232 241 252 257 236 242 249 257 276 259 208 194 207 218 216 216 218 217 213 206
298 297 74 113 263 283 281 272 274 288 285 274 267 254 226 221 218 214 221 226 244 258 236 241 254 254 249 266 261 212 198 201 202 215 222 221 216 205
304 327 314 253 269 272 271 274 278 287 280 275 269 260 247 250 246 226 206 216 233 240 236 234 248 246 251 261 266 240 214 199 197 202 202 211 215 219
306 303 287 272 266 264 257 267 267 263 266 270 274 271 260 254 255 251 259 231 235 247 244 230 231 233 234 248 251 246 249 229 207 204 198 197 207 210
290 284 271 265 265 266 259 256 245 259 274 272 273 276 278 258 250 245 248 243 259 272 248 233 221 221 239 237 239 247 248 237 220 212 204 203 206 205
294 279 267 256 250 250 254 247 234 244 256 271 289 293 285 278 270 264 261 255 252 264 264 253 230 220 222 233 241 236 234 242 227 202 206 219 221 211
283 265 262 261 265 264 264 261 251 250 266 276 279 274 276 280 281 279 273 260 261 266 266 248 225 253 265 267 243 243 235 230 227 210 205 222 232 215
259 263 266 265 264 258 269 276 274 260 253 264 266 265 270 276 280 276 269 261 258 261 254 234 223 234 256 270 262 240 240 236 219 222 209 214 232 215
249 266 274 276 281 281 277 277 281 276 261 258 260 261 269 275 276 277 269 257 257 258 256 236 225 226 234 255 263 264 239 232 223 223 217 206 230 179
263 268 275 281 286 286 282 279 284 279 276 266 258 256 265 271 273 274 275 268 259 257 254 244 230 227 227 233 251 252 248 218 215 217 210 202 219 226
269 273 278 283 291 294 290 280 280 277 277 275 276 276 276 274 273 271 269 267 258 252 255 243 213 218 215 222 245 250 252 227 200 211 226 224 216 217
270 282 283 282 275 277 284 283 282 285 287 290 290 286 283 281 277 274 271 268 267 266 257 239 220 216 221 220 232 242 233 221 211 206 244 235 222 221
Height
1510 1509 1509 1510 1510 1510 1510 1510 1511 1510 1511 1512 1512 1512 1512 1511 1512 1512 1513 1514 1514 1515 1516 1517 1518 1519 1520 1521 1522 1523 1524 1525 1526 1527 1528 1529 1530 1531
1508 1508 1508 1508 1508 1508 1509 1509 1509 1510 1509 1509 1510 1510 1510 1510 1510 1510 1511 1511 1512 1513 1514 1515 1516 1517 1517 1518 1519 1520 1521 1522 1523 1524 1525 1526 1527 1527
1507 1507 1506 1506 1506 1506 1506 1507 1507 1508 1507 1508 1508 1508 1508 1508 1508 1508 1509 1509 1510 1511 1512 1512 1513 1514 1515 1515 1516 1517 1518 1519 1520 1521 1522 1522 1523 1524
1506 1505 1505 1505 1504 1504 1504 1505 1505 1505 1506 1506 1506 1507 1507 1506 1506 1507 1507 1507 1507 1508 1509 1510 1510 1511 1512 1513 1513 1514 1515 1516 1517 1518 1518 1519 1520 1520
1504 1504 1503 1503 1502 1502 1503 1503 1503 1504 1504 1504 1504 1505 1505 1505 1505 1505 1505 1505 1506 1506 1507 1507 1508 1508 1509 1510 1510 1511 1512 1513 1514 1514 1515 1515 1516 1516
1503 1503 1502 1502 1502 1501 1501 1501 1502 1502 1502 1502 1503 1503 1503 1503 1503 1503 1503 1503 1504 1504 1505 1505 1505 1506 1506 1507 1507 1508 1509 1510 1510 1511 1511 1512 1512 1513
1502 1502 1501 1501 1501 1500 1500 1500 1500 1500 1500 1500 1501 1501 1501 1501 1501 1501 1501 1501 1502 1502 1502 1502 1503 1503 1503 1504 1504 1505 1505 1506 1506 1507 1507 1508 1508 1508
1501 1501 1500 1500 1499 1499 1499 1499 1498 1498 1498 1498 1498 1498 1499 1499 1499 1499 1499 1499 1499 1500 1500 1500 1500 1500 1500 1501 1501 1501 1502 1502 1502 1503 1503 1504 1504 1504
1500 1499 1499 1499 1498 1498 1497 1497 1497 1497 1497 1497 1496 1496 1497 1497 1497 1497 1497 1497 1496 1497 1497 1496 1497 1497 1497 1498 1498 1498 1498 1498 1499 1499 1499 1500 1500 1500
1498 1498 1497 1496 1496 1496 1496 1495 1495 1495 1495 1495 1494 1494 1495 1495 1495 1495 1494 1494 1494 1495 1495 1494 1494 1494 1494 1494 1494 1495 1495 1495 1495 1495 1495 1496 1496 1496
1497 1496 1496 1495 1495 1494 1494 1493 1493 1493 1493 1493 1493 1492 1492 1492 1492 1492 1491 1491 1491 1491 1492 1492 1491 1491 1491 1491 1491 1491 1491 1491 1491 1491 1491 1492 1492 1492
1495 1495 1494 1493 1493 1493 1492 1491 1491 1490 1490 1490 1490 1490 1490 1490 1490 1489 1489 1489 1488 1488 1489 1489 1488 1488 1487 1487 1487 1487 1487 1487 1487 1488 1488 1488 1488 1489
1494 1493 1492 1492 1491 1490 1490 1489 1489 1488 1488 1488 1487 1487 1487 1487 1487 1487 1487 1486 1486 1485 1486 1486 1485 1485 1484 1483 1483 1484 1484 1483 1484 1484 1484 1485 1485 1485
1491 1491 1490 1489 1489 1488 1487 1487 1486 1486 1486 1486 1485 1485 1485 1485 1484 1484 1484 1483 1483 1482 1482 1482 1481 1481 1481 1480 1480 1480 1480 1480 1480 1480 1480 1481 1481 1482
1489 1489 1488 1487 1486 1486 1485 1484 1484 1484 1483 1483 1483 1483 1482 1482 1481 1481 1481 1480 1479 1479 1479 1478 1478 1478 1478 1477 1477 1476 1476 1477 1477 1477 1477 1477 1477 1478
1487 1486 1486 1485 1484 1483 1483 1482 1482 1481 1481 1481 1480 1480 1479 1479 1478 1478 1477 1476 1476 1475 1475 1475 1475 1475 1474 1474 1474 1473 1473 1473 1473 1474 1474 1474 1474 1474
1484 1483 1483 1482 1482 1481 1481 1480 1479 1478 1478 1478 1477 1477 1476 1476 1475 1475 1474 1474 1473 1472 1471 1471 1471 1471 1471 1470 1470 1470 1470 1470 1470 1470 1470 1470 1470 1470
1482 1481 1480 1480 1479 1479 1478 1477 1476 1475 1475 1474 1474 1474 1473 1472 1472 1471 1471 1470 1469 1469 1468 1468 1468 1467 1467 1466 1467 1466 1466 1466 1466 1466 1466 1466 1466 1467
1479 1478 1478 1477 1477 1476 1475 1474 1473 1472 1471 1471 1471 1470 1470 1469 1468 1468 1467 1467 1466 1466 1465 1465 1464 1464 1463 1462 1462 1463 1462 1462 1462 1462 1462 1463 1463 1463
1477 1476 1475 1474 1474 1473 1472 1471 1470 1469 1468 1467 1467 1467 1466 1466 1465 1464 1464 1463 1463 1462 1462 1461 1461 1460 1460 1459 1458 1458 1459 1459 1459 1458 1459 1459 1460 1461
1474 1473 1472 1472 1471 1470 1469 1468 1467 1466 1465 1464 1463 1463 1462 1462 1461 1461 1460 1460 1459 1458 1458 1457 1457 1457 1457 1457 1457 1456 1456 1456 1456 1456 1456 1456 1456 1457
1471 1470 1470 1469 1468 1466 1465 1465 1464 1462 1461 1461 1460 1459 1458 1458 1457 1456 1456 1456 1455 1455 1454 1454 1454 1454 1454 1453 1453 1453 1452 1453 1453 1453 1453 1454 1453 1453
1467 1467 1466 1465 1464 1463 1462 1461 1460 1459 1458 1457 1456 1455 1454 1454 1453 1453 1452 1452 1451 1451 1451 1450 1450 1450 1450 1450 1450 1450 1450 1450 1450 1450 1450 1451 1451 1452